Location: ????????
(55.3975°N, 38.2844°E)
Time: 12:22:36
(UTC+00:00)

BlueWalker 3 - Pass Details

Date: 22 August 2024
Orbit: 475 x 487 km, 53.2° (Epoch: 14 September)

Event Time Altitude Azimuth Distance (km) Brightness Sun altitude
Exits shadow 23:45:42 20° 153° (SSE) 1,166 3.5 -17.4°
Drops below altitude 10° 23:47:12 10° 139° (SE) 1,679 4.5 -17.3°
Sets 23:49:29 0° 130° (SE) 2,559 5.5 -17.1°
